Torna al catalogo

MINOTAUR R/B

AttivoSSO
NORAD 28637·ROCKET BODY·🇺🇸 United States

Lanciato Apr 11, 2005 da Vandenberg Space Force Base

Loading…

Prossimi Passaggi (prossime 24 ore)

TLE

AggiornatoSource: Space-Track

Epoca: Sep 14, 2026, 08:52 UTC

1 28637U 05011B   26257.36948300  .00000008  00000-0  28006-4 0  9996
2 28637  98.7783 251.6475 0013738  31.9081 328.2920 14.12268133103959

Traccia MINOTAUR R/B in tempo reale con AllMySat

Download on the App Store